[[{"header":{"parameterUnit":"m.s-1","parameterCategory":1,"la1":30.2992,"la2":30.254,"lo1":-89.0895,"lo2":-89.0443,"dy":0.0025,"dx":0.0025,"nx":19,"ny":19,"refTime":"2026-05-13T21:00:00:Z","depth":0,"parameterNumber":2,"parameterNumberName":"U-component_of_WINDS"},"data":[0,0,0,-5.1939,-5.1942,-5.2069,-5.2069,-5.224,-5.2242,0,0,0,0,0,0,0,0,0,0,0,-5.1908,-5.191,-5.1939,-5.1943,-5.2069,-5.2069,-5.224,-5.2242,0,0,0,0,0,0,0,0,0,0,0,-5.1908,-5.191,-5.1911,-5.1943,-5.2069,-5.2069,-5.2239,-5.214,0,0,0,0,0,0,0,0,0,0,-5.2016,-5.1994,-5.1909,-5.1911,-5.1944,-5.2069,-5.2069,-5.2135,-5.2147,-5.2187,0,-5.2225,0,-5.2236,-5.2254,-5.2254,0,0,0,-5.1937,-5.1985,-5.2013,-5.1912,-5.1945,-5.2068,-5.201,-5.2142,-5.2154,-5.2202,-5.2228,-5.2234,-5.2239,-5.2255,-5.2256,-5.2508,-5.2509,0,0,-5.193,-5.1934,-5.2005,-5.2022,-5.2004,-5.2006,-5.2014,-5.2149,-5.2177,-5.2228,-5.2238,-5.2242,-5.2256,-5.2257,-5.2506,-5.2508,0,0,0,-5.1914,-5.193,-5.1955,-5.2015,-5.2037,-5.201,-5.2019,-5.2171,-5.2179,-5.2239,-5.2244,-5.2257,-5.2259,-5.2505,-5.2507,-5.2579,0,0,0,-5.1909,-5.192,-5.1952,-5.1955,-5.2035,-5.2106,-5.2039,-5.217,-5.2185,-5.2243,-5.2257,-5.2261,-5.2503,-5.2506,-5.2574,-5.2611,0,0,0,-5.1898,-5.1919,-5.1939,-5.1955,-5.201,-5.2104,-5.2119,-5.2173,-5.2188,-5.2254,-5.2262,-5.2502,-5.2505,-5.2569,-5.2604,-5.2677,0,0,0,-5.1886,-5.2002,-5.1941,-5.2072,-5.2009,-5.2149,-5.2118,-5.2222,-5.2288,-5.2258,-5.2503,-5.2507,-5.2567,-5.2599,-5.2672,-5.2737,-5.2766,0,0,-5.2034,-5.202,-5.2097,-5.2046,-5.2197,-5.2129,-5.2291,-5.2348,-5.235,-5.2455,-5.2461,-5.2576,-5.2603,-5.2676,-5.293,-5.2952,0,0,0,-5.2145,-5.22,-5.2239,-5.2303,-5.235,-5.2392,-5.2424,-5.2445,-5.2533,-5.2405,-5.2624,-5.264,-5.2682,-5.2713,-5.2732,-5.2767,-5.2522,-5.2522,-5.2521,-5.2357,-5.2355,-5.2482,-5.2495,-5.2558,-5.259,-5.2639,-5.2673,-5.2652,-5.2704,-5.2734,-5.2888,-5.2925,-5.2939,-5.2976,-5.2771,-5.2772,-5.2772,-5.2772,-5.257,-5.2646,-5.2619,-5.2731,-5.2729,-5.2823,-5.2859,-5.2841,-5.2927,-5.2866,-5.2903,-5.2832,-5.2964,-5.2995,-5.2777,-5.2777,-5.2776,-5.2775,-5.2775,-5.2706,-5.2742,-5.2767,-5.2858,-5.293,-5.294,-5.3024,-5.302,-5.3016,-5.3053,-5.3083,-5.3081,-5.3077,-5.3069,-5.3069,-5.307,-5.307,-5.3071,-5.3071,-5.2835,-5.2861,-5.2933,-5.2993,-5.3033,-5.3086,-5.3121,-5.316,-5.3202,-5.3191,-5.3191,-5.3164,-5.2979,-5.293,-5.3079,-5.3078,-5.3077,-5.3076,-5.3075,-5.3045,-5.2997,-5.3108,-5.3148,-5.3219,-5.3289,-5.3284,-5.3364,-5.3396,-5.3437,-5.3404,-5.3269,-5.3253,-5.3237,-5.3197,-5.3406,-5.3406,-5.3406,-5.3406,-5.3156,-5.315,-5.3261,-5.3326,-5.3389,-5.3396,-5.352,-5.3549,-5.3571,-5.3591,-5.3561,-5.3508,-5.3493,-5.3486,-5.3465,-5.3427,-5.369,-5.369,-5.369,-5.3284,-5.3283,-5.3389,-5.3412,-5.3467,-5.3515,-5.3631,-5.3705,-5.3721,-5.3702,-5.3605,-5.3593,-5.3508,-5.3481,-5.3455,-5.3423,-5.3352,0,0]},{"header":{"parameterUnit":"m.s-1","parameterCategory":1,"la1":30.2992,"la2":30.254,"lo1":-89.0895,"lo2":-89.0443,"dy":0.0025,"dx":0.0025,"nx":19,"ny":19,"refTime":"2026-05-13T21:00:00:Z","depth":0,"parameterNumber":3,"parameterNumberName":"V-component_of_WINDS"},"data":[0,0,0,3.19,3.1899,3.1868,3.1868,3.1845,3.1845,0,0,0,0,0,0,0,0,0,0,0,3.192,3.192,3.19,3.1899,3.1868,3.1868,3.1845,3.1845,0,0,0,0,0,0,0,0,0,0,0,3.192,3.192,3.192,3.1899,3.1868,3.1868,3.1845,3.1862,0,0,0,0,0,0,0,0,0,0,3.1889,3.1919,3.192,3.192,3.1899,3.1868,3.1868,3.1863,3.1861,3.1866,0,3.1875,0,3.186,3.1845,3.1845,0,0,0,3.1891,3.192,3.1902,3.192,3.1899,3.1869,3.188,3.1862,3.186,3.1864,3.1874,3.1873,3.186,3.1845,3.1845,3.1908,3.1908,0,0,3.1892,3.192,3.1904,3.1902,3.1909,3.1881,3.1879,3.186,3.1873,3.1874,3.1872,3.1859,3.1845,3.1844,3.1907,3.1908,0,0,0,3.1903,3.1921,3.1903,3.1903,3.1896,3.188,3.1878,3.1873,3.1865,3.1872,3.1859,3.1844,3.1844,3.1906,3.1907,3.1971,0,0,0,3.1904,3.1927,3.1904,3.1921,3.1897,3.1885,3.1892,3.1867,3.1864,3.1859,3.1844,3.1844,3.1905,3.1907,3.1967,3.1996,0,0,0,3.1918,3.1929,3.1928,3.1922,3.191,3.1884,3.1875,3.1865,3.1856,3.1845,3.1844,3.1905,3.1907,3.1964,3.1991,3.2022,0,0,0,3.1941,3.1983,3.193,3.1972,3.1911,3.1924,3.1875,3.1882,3.188,3.1844,3.1906,3.1907,3.1963,3.1987,3.2019,3.2055,3.2072,0,0,3.2009,3.1992,3.2015,3.1966,3.1996,3.1926,3.1965,3.1935,3.1908,3.1909,3.191,3.1968,3.199,3.2022,3.2156,3.217,0,0,0,3.2046,3.2063,3.2065,3.2065,3.2045,3.203,3.1992,3.1981,3.1982,3.1915,3.1986,3.1999,3.2016,3.2032,3.2044,3.2057,3.1915,3.1915,3.1915,3.2183,3.2147,3.2183,3.2145,3.2145,3.2107,3.2104,3.2083,3.2045,3.2063,3.2063,3.2149,3.2169,3.2178,3.2193,3.2078,3.2078,3.2078,3.2078,3.2281,3.2301,3.2252,3.2269,3.2231,3.2245,3.221,3.2183,3.219,3.2145,3.2159,3.2115,3.2194,3.2205,3.2083,3.2082,3.2082,3.2081,3.2081,3.2369,3.2372,3.2359,3.2357,3.2359,3.2317,3.2328,3.2292,3.2258,3.2271,3.2269,3.2268,3.2264,3.2272,3.2273,3.2273,3.2273,3.2273,3.2273,3.2465,3.2448,3.2462,3.2446,3.2442,3.2433,3.2395,3.239,3.2375,3.2348,3.2348,3.231,3.2208,3.2184,3.2278,3.2277,3.2277,3.2276,3.2276,3.2581,3.255,3.2571,3.2568,3.2546,3.2552,3.2506,3.2499,3.2489,3.2496,3.2455,3.2385,3.2364,3.2354,3.2335,3.2461,3.2461,3.2461,3.2461,3.2656,3.2643,3.2657,3.2655,3.2647,3.2609,3.2635,3.2606,3.2572,3.2564,3.254,3.251,3.2501,3.2486,3.2473,3.2454,3.2609,3.2609,3.2609,3.2727,3.2711,3.274,3.2707,3.2688,3.2673,3.2696,3.2695,3.2648,3.2614,3.2557,3.2551,3.2502,3.2488,3.2454,3.2435,3.2399,0,0]}]]